This is the latest recevied weather packets stored in our database for station/object AD0YN. If no packets are shown the sender has not sent any weather packets the latest 10 day(s).
| Time | Temp. | Humidity | Pressure | Rain* | Wind** | Luminosity | Snow |
|---|---|---|---|---|---|---|---|
| 1777974216 | 10.56° C | 66% | 1009.4 hPa | 0 mm | - | 0 W/m² | - |
| 1777973911 | 10.56° C | 69% | 1009.3 hPa | 0 mm | - | 0 W/m² | - |
| 1777973610 | 10.56° C | 70% | 1009.5 hPa | 0 mm | - | 0 W/m² | - |
| 1777973306 | 10.56° C | 69% | 1009.6 hPa | 0 mm | - | 0 W/m² | - |
| 1777973005 | 10.56° C | 70% | 1009.6 hPa | 0 mm | - | 0 W/m² | - |
| 1777972701 | 10.56° C | 71% | 1009.4 hPa | 0 mm | - | 0 W/m² | - |
| 1777972400 | 11.11° C | 68% | 1009.8 hPa | 0 mm | - | 0 W/m² | - |
| 1777972097 | 11.11° C | 63% | 1009.5 hPa | 0 mm | - | 0 W/m² | - |
| 1777971795 | 11.67° C | 59% | 1009.7 hPa | 0 mm | - | 0 W/m² | - |
| 1777971492 | 11.67° C | 59% | 1009.3 hPa | 0 mm | - | 0 W/m² | - |
| 1777971190 | 11.67° C | 56% | 1009.3 hPa | 0 mm | - | 0 W/m² | - |
| 1777970887 | 12.22° C | 55% | 1009.3 hPa | 0 mm | - | 0 W/m² | - |
| 1777970586 | 12.78° C | 54% | 1009.1 hPa | 0 mm | - | 0 W/m² | - |
| 1777970283 | 13.33° C | 49% | 1009.1 hPa | 0 mm | - | 0 W/m² | - |
| 1777969979 | 13.33° C | 45% | 1009.1 hPa | 0 mm | - | 0 W/m² | - |
| 1777969676 | 13.33° C | 44% | 1009.2 hPa | 0 mm | - | 0 W/m² | - |
| 1777969373 | 13.33° C | 44% | 1009.3 hPa | 0 mm | - | 0 W/m² | - |
| 1777969069 | 13.33° C | 43% | 1008.7 hPa | 0 mm | - | 0 W/m² | - |
| 1777968766 | 13.33° C | 45% | 1008.4 hPa | 0 mm | - | 0 W/m² | - |
| 1777968463 | 13.89° C | 44% | 1008.1 hPa | 0 mm | - | 0 W/m² | - |
| 1777968158 | 13.89° C | 44% | 1008.2 hPa | 0 mm | - | 0 W/m² | - |
| 1777967854 | 13.89° C | 43% | 1008 hPa | 0 mm | - | 0 W/m² | - |
| 1777967552 | 13.89° C | 43% | 1007.6 hPa | 0 mm | - | 0 W/m² | - |
| 1777967249 | 13.89° C | 45% | 1007.1 hPa | 0 mm | - | 0 W/m² | - |
| 1777966946 | 13.89° C | 47% | 1007.2 hPa | 0 mm | - | 0 W/m² | - |
* Rain latest hour (hover to see other rain measurements)
** Current wind speed in m/s (hover to see current wind gust speed)